Temperature
15 15 15 14 14 14 14 14 14 14 14 14 13 13 13 13 13 13 13 13 13 13 13 13 13 13 12 12 12 12 12 12 12 12 12 12 12 12 12 12 12 12 11
15 14 14 14 14 14 14 14 13 13 13 13 13 13 13 13 13 13 13 13 13 13 12 12 12 12 12 12 12 12 12 12 12 12 12 11 11 11 11 11 11 11 11
14 14 14 14 14 14 13 13 13 13 13 13 13 13 13 13 13 12 12 12 12 12 12 12 12 12 12 12 12 12 12 12 11 11 11 11 11 11 11 11 11 11 11
14 14 14 14 13 13 13 13 13 13 13 13 13 13 12 12 12 12 12 12 12 12 12 12 12 12 12 12 12 11 11 11 11 11 11 11 11 11 11 11 11 11 11
14 14 13 13 13 13 13 13 13 12 12 12 12 12 12 12 12 12 12 12 12 12 11 11 11 11 11 11 11 11 11 11 11 11 11 11 11 10 10 10 10 11 10
13 13 13 13 13 13 12 12 12 12 12 12 12 12 12 12 12 12 11 11 11 11 11 11 11 11 11 11 11 11 11 11 10 10 10 10 10 10 10 10 10 10 10
13 13 13 12 12 12 12 12 12 12 12 12 12 12 12 11 11 11 11 11 11 11 11 11 11 11 11 11 11 10 10 10 10 10 10 10 10 10 10 10 10 10 10
13 12 12 12 12 12 12 12 12 12 11 11 11 11 11 11 11 11 11 11 11 11 11 11 11 11 11 10 10 10 10 10 10 10 10 10 10 9 9 9 9 9 9
12 12 12 12 12 11 11 11 11 11 11 11 11 11 11 11 10 10 10 10 10 10 10 10 10 10 10 10 10 10 10 10 10 10 9 9 9 9 9 9 9 9 9
12 12 11 11 11 11 11 11 11 11 11 10 10 10 10 10 10 10 10 10 10 10 10 10 10 10 10 10 10 9 9 9 9 9 9 9 9 9 9 9 8 8 8
11 11 11 11 11 10 10 10 10 10 10 10 10 10 10 10 10 10 10 10 10 10 10 10 10 9 9 9 9 9 9 9 9 9 9 9 9 8 8 8 8 8 8
11 10 10 10 10 10 10 10 10 10 9 9 9 9 9 10 9 9 9 9 9 9 9 9 9 9 9 9 9 9 8 8 8 8 8 8 8 8 8 8 8 8 7
10 10 10 10 10 9 9 9 9 9 9 9 9 9 9 9 9 9 9 9 9 9 9 9 9 8 8 8 8 8 8 8 8 8 8 8 8 8 7 7 7 7 7
10 10 9 9 9 9 9 9 9 9 8 8 8 8 8 8 8 8 8 8 8 8 8 8 8 8 8 8 8 7 7 7 7 7 7 7 7 7 7 7 7 7 7
9 9 9 9 9 8 8 8 8 8 8 8 8 8 8 8 7 7 7 7 7 7 7 7 7 7 7 7 7 7 7 7 7 7 7 7 7 7 7 7 6 6 6
8 8 8 8 8 8 8 8 7 7 7 7 7 7 7 7 7 7 6 6 6 6 6 6 6 6 6 6 6 6 6 6 6 6 6 6 6 6 6 6 6 6 6
8 8 8 8 7 7 7 7 7 7 7 7 6 6 6 6 6 6 6 6 6 6 6 6 6 6 6 6 6 6 6 6 6 6 6 6 6 6 6 6 6 5 5
7 7 7 7 7 7 7 6 6 6 6 6 6 6 6 6 6 6 6 5 5 5 5 5 5 5 5 5 5 5 5 5 5 5 5 5 5 5 5 5 5 5 5
7 7 6 6 6 6 6 6 6 6 5 5 5 5 5 5 5 5 5 5 4 4 4 4 4 4 4 4 4 4 4 4 4 4 5 5 5 5 5 5 5 5 5
6 6 6 6 6 6 5 5 5 5 5 5 5 5 4 4 4 4 4 4 4 4 4 4 4 4 4 4 4 4 4 4 4 4 4 4 4 4 4 4 4 4 4
5 5 5 5 5 5 5 5 4 4 4 4 4 4 4 3 3 3 3 3 3 3 3 3 3 3 3 3 3 3 3 3 3 3 4 4 4 4 4 4 4 4 4
5 5 4 4 4 4 4 4 4 4 3 3 3 3 3 3 3 3 3 2 2 2 3 3 3 3 3 3 3 3 3 3 3 3 3 3 3 3 3 3 3 3 3
4 4 4 4 3 3 3 3 3 3 3 3 3 3 2 2 2 2 2 2 2 2 2 2 2 2 2 2 2 2 2 2 2 2 2 2 3 3 3 3 3 3 3
4 4 3 3 3 3 3 3 3 3 2 2 2 2 2 2 2 2 1 1 1 1 1 1 1 1 2 2 2 2 2 2 2 2 2 2 2 2 2 2 3 2 2
3 3 3 3 2 2 2 2 2 2 2 2 2 2 2 1 1 1 1 1 1 1 1 1 1 1 1 1 1 1 1 1 2 2 2 2 2 2 2 2 2 2 2
3 2 2 2 2 2 2 2 2 2 1 1 1 1 1 1 1 1 0 0 0 0 0 0 0 0 1 1 1 1 1 1 1 1 1 1 1 1 1 2 2 2 2
Wind_Speed
2 2 1 1 1 2 2 2 2 2 2 2 2 1 1 1 1 2 2 2 2 1 1 1 1 1 1 1 1 2 2 2 3 2 1 1 1 2 3 3 3 3 3
3 2 2 1 1 1 2 2 2 2 2 2 2 2 1 1 2 2 2 2 2 2 2 2 1 1 1 1 2 2 2 2 3 3 1 1 1 1 2 2 2 2 2
2 2 2 2 2 2 3 3 2 2 2 2 2 3 2 2 2 2 2 2 2 3 3 3 3 2 2 1 2 2 2 1 2 2 1 1 1 1 2 2 2 2 3
2 2 2 3 3 3 2 2 2 2 2 2 3 3 3 2 2 2 2 2 2 2 2 3 3 4 4 3 2 3 2 2 2 2 1 1 1 1 1 1 2 2 2
2 2 3 3 2 2 1 1 1 2 2 2 2 1 1 2 2 3 3 3 3 2 2 2 3 3 4 3 3 3 4 3 2 2 2 1 1 0 1 1 1 2 2
2 3 2 2 2 2 2 1 1 1 1 1 1 2 1 2 2 4 4 3 3 3 3 2 3 3 4 5 4 5 5 4 5 3 3 3 4 3 2 2 1 0 2
2 2 2 2 2 2 2 1 1 1 1 1 1 1 2 3 2 2 4 2 3 3 3 3 3 2 2 2 3 4 5 5 5 5 5 5 4 5 4 3 3 3 4
2 2 2 2 2 2 2 2 1 1 1 1 1 1 2 3 3 3 4 2 2 3 4 4 4 3 2 2 2 2 3 3 5 4 5 6 5 5 5 5 4 3 2
2 3 3 2 3 2 2 2 2 1 1 1 1 2 2 3 4 3 2 2 2 3 3 3 3 4 5 4 2 3 3 4 4 6 5 5 6 5 5 2 2 1 2
3 3 2 2 3 3 3 2 2 1 2 1 1 1 2 3 4 3 2 2 2 2 2 3 4 4 5 5 3 4 4 5 3 3 3 4 4 5 6 5 4 3 2
2 1 1 1 2 3 2 2 1 1 1 1 1 2 2 2 3 2 1 1 2 2 2 3 3 5 5 6 5 4 6 5 3 3 3 3 2 3 4 5 5 5 4
0 0 1 1 1 1 2 1 1 1 1 1 1 2 2 2 3 3 2 2 2 2 3 3 4 6 6 5 4 5 6 4 2 2 3 3 3 4 4 5 7 7 7
1 0 1 1 1 1 2 2 1 1 1 1 1 2 3 2 3 3 3 3 2 2 3 4 4 5 5 4 4 5 4 2 2 3 4 5 4 4 3 3 4 5 6
1 1 1 0 1 1 0 1 2 1 1 1 2 2 3 2 2 2 2 2 2 3 3 3 3 3 2 3 3 3 2 3 3 4 4 4 3 3 3 4 4 3 3
0 1 1 1 1 0 1 1 2 2 3 3 3 3 2 3 4 4 3 2 2 3 2 1 1 2 2 2 2 2 2 3 4 4 4 4 4 4 4 3 3 3 4
0 1 1 1 1 1 1 2 2 2 3 4 3 3 3 5 5 4 4 4 4 3 2 1 2 3 3 3 3 4 3 4 4 4 4 4 5 5 4 4 4 4 6
1 1 1 1 1 1 1 0 2 3 4 3 3 4 4 4 4 4 4 3 3 2 1 2 3 3 4 4 4 4 4 4 4 4 5 5 5 4 4 4 5 5 6
1 1 1 1 1 1 1 1 1 1 2 3 4 4 4 4 4 4 3 3 3 2 2 3 4 4 4 4 4 4 4 4 4 5 5 5 5 5 5 5 6 6 6
1 1 1 1 1 1 1 1 1 1 2 2 3 4 5 4 4 4 2 1 3 3 3 4 4 4 4 4 4 5 4 4 5 5 5 5 5 5 5 6 6 8 7
1 2 1 1 1 1 1 1 1 1 2 2 3 3 3 3 3 3 2 2 3 4 4 4 5 5 5 5 5 4 5 5 5 5 5 5 5 5 6 6 6 6 6
1 1 1 1 1 1 2 2 2 2 2 3 3 4 4 2 3 3 3 3 3 4 4 5 5 5 5 4 4 5 6 6 5 6 6 6 5 6 6 6 6 6 6
1 1 1 2 2 2 2 2 2 2 3 3 3 3 4 2 2 3 3 4 4 4 4 4 4 5 5 5 5 5 6 6 6 6 6 6 6 6 6 6 6 6 6
1 1 1 2 2 2 2 2 2 2 3 3 3 3 3 3 3 3 4 4 4 4 4 4 4 5 5 5 6 5 6 6 6 6 6 7 6 6 6 6 7 7 6
1 2 2 2 2 2 2 3 3 3 3 3 3 3 3 3 3 4 4 4 4 4 4 5 5 6 7 7 7 7 7 8 8 7 7 7 6 6 6 6 7 7 7
1 2 2 3 3 3 3 3 3 3 3 3 3 3 3 3 3 4 4 4 4 5 6 6 6 6 8 9 9 9 10 11 10 8 6 5 6 6 6 6 6 6 6
1 2 2 2 3 3 2 3 3 3 3 3 3 3 3 3 3 4 4 4 4 5 6 6 7 8 9 9 10 11 12 12 11 10 7 5 5 5 5 5 5 5 5
Wind_Direction
206 206 196 223 242 211 208 232 239 243 224 207 204 188 178 178 162 161 177 165 158 162 155 172 205 186 175 171 156 154 157 161 195 264 278 313 334 348 355 353 351 349 342
210 199 215 228 230 221 230 242 239 242 236 214 190 180 186 179 164 173 192 186 185 196 202 178 202 171 179 185 176 184 186 180 180 209 256 313 299 328 348 349 344 349 335
202 193 202 230 234 232 240 243 241 236 237 212 191 189 204 203 188 196 192 190 204 214 208 201 203 177 197 207 193 192 190 172 161 179 221 255 290 354 9 355 358 349 342
197 195 209 228 235 239 242 240 237 228 220 217 220 210 207 206 200 191 184 195 207 227 229 217 205 196 205 201 197 197 175 161 156 165 204 249 267 314 59 9 339 334 324
196 212 229 235 233 229 242 252 241 219 217 211 209 217 208 207 209 199 194 198 200 213 234 239 229 225 221 204 199 189 174 175 174 180 213 233 239 216 233 222 246 305 307
200 228 242 230 227 228 233 235 223 224 215 184 194 203 221 243 242 214 200 193 193 199 222 249 259 250 246 237 228 204 188 182 190 190 211 224 236 221 207 206 198 238 283
217 233 236 221 218 224 216 175 217 221 177 168 202 201 227 259 265 234 209 195 195 201 212 231 260 265 259 240 235 225 224 221 206 195 204 222 219 211 194 205 212 214 231
227 236 234 217 215 209 187 195 220 210 201 220 226 230 239 266 271 256 224 190 198 211 214 220 228 242 238 217 207 228 242 247 236 224 220 226 224 208 200 206 208 215 244
240 249 240 215 202 194 200 219 223 215 238 246 247 235 238 268 270 257 225 180 204 231 232 226 221 227 243 231 207 221 250 269 261 244 245 242 233 219 191 157 168 185 253
240 253 246 213 203 205 210 216 223 211 227 240 277 259 248 265 284 270 215 178 209 239 252 251 248 245 249 228 214 217 235 252 252 261 261 266 247 226 210 201 194 204 223
245 258 258 223 213 207 200 206 201 204 209 244 272 283 279 280 290 282 239 199 214 227 244 252 251 254 255 245 237 228 242 246 230 227 243 255 262 241 227 223 213 206 214
210 212 278 270 247 216 176 189 183 180 201 252 285 314 312 305 304 291 268 261 259 233 244 251 253 257 257 256 250 246 250 254 230 224 237 245 245 246 240 231 229 227 230
80 168 266 301 291 221 183 182 182 177 201 243 255 281 296 312 313 307 293 285 280 269 262 260 269 270 267 263 255 257 254 234 219 234 244 247 241 242 243 237 234 234 242
82 310 295 317 321 308 246 199 192 202 216 243 257 265 284 301 301 301 285 286 286 282 288 286 284 287 273 265 272 267 252 233 232 240 247 252 247 236 239 234 232 227 239
61 321 317 316 271 287 293 258 226 228 218 222 235 239 247 270 275 280 274 270 262 259 283 312 319 300 279 273 271 267 255 245 248 250 249 254 254 249 245 234 231 229 234
89 316 303 301 282 231 255 324 315 280 275 261 250 246 256 260 283 286 286 291 287 287 303 284 268 265 262 259 257 261 254 251 249 244 244 245 248 249 250 243 236 232 241
200 253 263 263 255 245 224 207 318 331 333 319 297 286 277 284 292 292 287 295 299 297 277 271 270 268 267 268 263 258 259 260 256 249 248 248 247 250 253 248 240 240 244
223 246 241 239 248 237 231 223 231 289 324 324 323 320 310 301 299 296 300 327 321 306 268 262 264 267 267 265 266 267 269 271 265 259 255 253 249 248 252 251 241 239 244
245 287 267 233 242 254 249 241 248 264 278 297 315 323 327 318 312 313 319 298 276 281 279 274 268 266 264 264 267 269 267 265 268 266 261 257 253 250 251 252 249 244 240
252 281 292 257 265 278 271 258 258 262 275 288 296 301 320 335 323 309 297 279 273 275 278 279 277 273 269 268 267 266 267 265 265 263 263 260 254 250 253 254 252 247 242
254 270 307 312 259 253 253 252 258 263 270 277 282 287 295 291 279 282 283 279 275 273 274 275 276 276 273 271 270 268 266 265 261 260 261 259 257 255 254 253 251 246 244
230 234 248 256 256 257 262 264 267 266 270 276 287 292 286 289 280 286 286 283 280 278 280 278 277 277 276 272 270 268 269 271 267 262 260 257 254 254 253 252 249 246 241
212 234 255 268 262 264 271 269 266 265 268 271 277 285 286 280 278 277 281 285 282 283 287 286 284 286 290 288 282 270 266 268 269 267 263 259 255 252 251 250 250 249 242
230 245 258 264 267 263 262 265 263 263 267 273 278 277 278 279 280 280 283 282 283 285 288 288 284 285 289 293 291 284 277 276 275 268 260 258 258 258 254 251 248 245 243
249 258 263 261 260 261 265 267 267 268 271 277 281 281 281 283 288 293 291 287 289 289 290 291 291 291 291 291 293 293 290 284 280 277 268 257 254 254 256 252 248 245 241
243 260 271 271 267 264 264 271 277 280 282 288 290 291 293 297 298 301 302 299 298 298 298 298 296 296 296 295 294 295 296 290 281 276 270 264 259 257 254 253 250 241 238
Height
1530 1530 1530 1529 1529 1529 1529 1529 1529 1529 1529 1529 1529 1529 1528 1528 1529 1529 1529 1529 1529 1530 1530 1530 1530 1531 1531 1531 1531 1531 1531 1531 1530 1531 1531 1531 1531 1531 1530 1530 1530 1530 1530
1527 1527 1527 1527 1527 1526 1526 1526 1526 1526 1526 1526 1526 1526 1526 1526 1526 1527 1527 1527 1527 1527 1528 1528 1528 1528 1529 1529 1529 1529 1529 1529 1529 1529 1529 1529 1529 1529 1529 1529 1529 1528 1528
1524 1524 1524 1524 1524 1524 1523 1523 1523 1523 1523 1523 1524 1523 1523 1524 1524 1524 1524 1525 1525 1525 1525 1526 1526 1526 1526 1526 1527 1527 1527 1527 1527 1527 1526 1527 1527 1527 1527 1527 1527 1527 1527
1522 1521 1521 1521 1521 1521 1521 1521 1520 1520 1520 1520 1520 1521 1521 1521 1521 1522 1522 1522 1522 1523 1523 1523 1523 1523 1523 1524 1524 1524 1524 1525 1525 1525 1524 1524 1524 1525 1525 1525 1525 1525 1525
1519 1519 1519 1519 1519 1518 1518 1518 1517 1517 1517 1518 1518 1518 1518 1518 1518 1519 1519 1519 1519 1520 1520 1521 1521 1521 1521 1521 1521 1521 1522 1522 1522 1522 1522 1522 1522 1522 1522 1522 1522 1522 1522
1516 1516 1516 1516 1515 1515 1515 1515 1515 1514 1514 1515 1515 1515 1515 1515 1515 1516 1516 1516 1516 1516 1517 1517 1518 1518 1518 1518 1519 1519 1519 1519 1519 1519 1519 1519 1519 1519 1519 1519 1519 1519 1519
1513 1513 1513 1513 1512 1512 1512 1512 1512 1511 1511 1511 1512 1512 1512 1512 1513 1513 1513 1513 1513 1513 1514 1514 1515 1515 1515 1515 1515 1516 1516 1516 1516 1517 1516 1516 1516 1516 1516 1516 1516 1516 1516
1510 1510 1510 1510 1509 1509 1509 1508 1508 1508 1508 1508 1508 1509 1509 1509 1510 1510 1510 1510 1510 1510 1511 1511 1511 1511 1511 1512 1512 1512 1512 1512 1512 1512 1512 1512 1513 1513 1513 1513 1513 1512 1512
1506 1506 1506 1506 1506 1506 1505 1505 1505 1505 1505 1505 1505 1505 1506 1506 1506 1507 1507 1507 1507 1507 1507 1508 1508 1508 1508 1508 1508 1508 1508 1508 1508 1508 1508 1508 1509 1509 1509 1509 1509 1508 1507
1503 1503 1503 1503 1503 1502 1502 1502 1502 1502 1502 1502 1502 1502 1502 1503 1503 1503 1503 1503 1503 1503 1504 1504 1504 1504 1504 1504 1504 1503 1503 1503 1504 1503 1504 1504 1504 1504 1505 1505 1504 1504 1503
1500 1500 1500 1500 1499 1499 1499 1499 1499 1499 1499 1499 1499 1499 1499 1499 1499 1499 1499 1499 1499 1499 1499 1499 1500 1500 1500 1500 1500 1499 1499 1499 1499 1499 1498 1499 1499 1499 1499 1500 1500 1500 1499
1497 1497 1496 1496 1496 1496 1495 1495 1495 1495 1495 1495 1495 1495 1495 1495 1495 1495 1495 1495 1495 1495 1495 1495 1495 1495 1495 1495 1494 1495 1495 1494 1494 1494 1493 1493 1493 1494 1494 1494 1494 1494 1494
1495 1494 1493 1493 1493 1492 1492 1492 1491 1491 1491 1491 1491 1491 1490 1490 1491 1491 1491 1491 1491 1490 1490 1490 1490 1490 1489 1489 1489 1490 1490 1489 1489 1488 1488 1488 1488 1488 1489 1488 1488 1489 1489
1492 1492 1491 1490 1490 1489 1489 1488 1488 1488 1487 1487 1487 1486 1486 1486 1486 1486 1486 1486 1486 1485 1485 1484 1484 1484 1484 1484 1484 1484 1484 1484 1483 1483 1482 1483 1483 1483 1482 1483 1482 1482 1482
1489 1489 1488 1488 1487 1486 1486 1485 1485 1484 1484 1484 1483 1483 1482 1482 1482 1482 1481 1481 1480 1480 1479 1479 1478 1478 1478 1478 1478 1478 1478 1478 1478 1477 1477 1477 1476 1476 1476 1476 1476 1476 1476
1487 1486 1485 1485 1484 1483 1482 1482 1481 1481 1481 1480 1480 1479 1479 1478 1478 1478 1477 1477 1476 1476 1475 1474 1473 1473 1472 1472 1472 1472 1472 1472 1472 1472 1471 1471 1471 1470 1470 1470 1470 1470 1470
1484 1483 1482 1481 1481 1480 1479 1479 1478 1478 1477 1477 1476 1475 1475 1474 1474 1473 1473 1472 1472 1471 1470 1469 1468 1468 1467 1467 1467 1466 1466 1466 1466 1466 1465 1465 1465 1465 1464 1464 1464 1464 1464
1481 1480 1479 1478 1478 1477 1477 1476 1475 1474 1473 1472 1472 1471 1471 1470 1469 1469 1468 1468 1466 1465 1465 1464 1463 1463 1463 1462 1462 1461 1460 1460 1460 1460 1459 1459 1459 1458 1458 1458 1458 1457 1458
1478 1477 1476 1475 1475 1474 1474 1473 1472 1471 1470 1469 1468 1467 1466 1465 1465 1464 1463 1462 1461 1460 1460 1459 1458 1458 1457 1456 1456 1455 1455 1454 1453 1453 1453 1453 1452 1452 1452 1451 1451 1451 1451
1475 1474 1473 1473 1472 1471 1470 1469 1469 1468 1466 1465 1464 1463 1462 1461 1460 1459 1459 1458 1457 1456 1455 1454 1453 1452 1451 1450 1449 1449 1448 1447 1447 1446 1446 1446 1446 1446 1445 1445 1445 1445 1445
1472 1471 1470 1469 1468 1468 1467 1466 1465 1464 1463 1462 1461 1460 1459 1457 1456 1455 1454 1453 1452 1451 1450 1449 1447 1446 1446 1444 1443 1442 1441 1441 1440 1439 1439 1439 1439 1439 1439 1439 1439 1439 1439
1469 1468 1467 1466 1465 1464 1463 1462 1461 1460 1459 1458 1457 1456 1455 1453 1452 1451 1450 1449 1447 1446 1445 1444 1442 1441 1440 1439 1438 1436 1435 1434 1433 1433 1433 1432 1432 1432 1432 1432 1432 1432 1432
1465 1464 1463 1462 1461 1460 1460 1459 1458 1457 1456 1454 1453 1452 1450 1449 1447 1446 1445 1444 1442 1441 1439 1438 1437 1435 1434 1433 1432 1430 1429 1428 1427 1427 1426 1426 1425 1425 1424 1424 1425 1425 1425
1461 1460 1459 1458 1457 1456 1455 1455 1454 1453 1452 1450 1449 1447 1446 1445 1443 1441 1440 1439 1437 1435 1434 1433 1431 1429 1428 1427 1425 1424 1423 1422 1421 1420 1420 1419 1418 1418 1418 1418 1418 1418 1419
1457 1456 1455 1454 1453 1452 1451 1450 1449 1448 1447 1446 1445 1443 1441 1440 1438 1436 1435 1433 1432 1430 1428 1427 1425 1424 1422 1420 1419 1417 1416 1415 1414 1414 1413 1413 1412 1411 1411 1411 1411 1412 1412
1453 1452 1451 1450 1449 1448 1447 1446 1445 1444 1443 1441 1440 1439 1437 1435 1434 1432 1430 1428 1426 1425 1423 1421 1420 1418 1416 1414 1413 1411 1410 1409 1408 1407 1407 1406 1405 1405 1405 1405 1405 1405 1406